,,Stat6,,Stat2,,Stat8,,Stat9,,Stat10,,Wind1,,Wind1,
time,status,PA1M_AVG,status,PR1M_SUM,status,RH1M_AVG,status,SR1M_AVG,status,TA1M_AVG,status,W1dAve1m,status,W1sAve1m,
2009-02-09, 07:00:02,VALID,917.249,VALID,0,VALID,97.8868,VALID,46.9011,VALID,18.6904,VALID,164,VALID,0,
2009-02-09, 07:01:00,VALID,917.263,VALID,0,VALID,97.9275,VALID,44.286,VALID,18.7356,VALID,164,VALID,0,
2009-02-09, 07:02:00,VALID,917.274,VALID,0,VALID,97.8322,VALID,34.3692,VALID,18.7842,VALID,164,VALID,0,
2009-02-09, 07:03:00,VALID,917.304,VALID,0,VALID,97.6363,VALID,34.4201,VALID,18.8,VALID,164,VALID,0,
2009-02-09, 07:04:00,VALID,917.314,VALID,0,VALID,97.5651,VALID,35.1673,VALID,18.8364,VALID,164,VALID,0,
2009-02-09, 07:05:00,VALID,917.338,VALID,0,VALID,97.3579,VALID,36.322,VALID,18.8424,VALID,139,VALID,0.0925071,
2009-02-09, 07:06:00,VALID,917.353,VALID,0,VALID,97.2027,VALID,37.222,VALID,18.8394,VALID,4,VALID,0.703307,
2009-02-09, 07:07:00,VALID,917.378,VALID,0,VALID,97.2078,VALID,38.0371,VALID,18.8326,VALID,15,VALID,0.610465,
2009-02-09, 07:08:00,VALID,917.385,VALID,0,VALID,97.2231,VALID,39.1578,VALID,18.8206,VALID,24,VALID,0.457403,
2009-02-09, 07:09:00,VALID,917.393,VALID,0,VALID,97.1023,VALID,41.1446,VALID,18.7924,VALID,34,VALID,0.966747,
2009-02-09, 07:10:00,VALID,917.406,VALID,0,VALID,97.1875,VALID,43.4539,VALID,18.7762,VALID,46,VALID,0.914063,
2009-02-09, 07:11:00,VALID,917.434,VALID,0,VALID,97.1264,VALID,48.7689,VALID,18.7595,VALID,53,VALID,0.962612,
2009-02-09, 07:12:00,VALID,917.433,VALID,0,VALID,97.101,VALID,64.9517,VALID,18.7752,VALID,59,VALID,0.445884,
2009-02-09, 07:13:00,VALID,917.437,VALID,0,VALID,97.0056,VALID,90.8135,VALID,18.8605,VALID,66,VALID,0.887195,
2009-02-09, 07:14:00,VALID,917.446,VALID,0,VALID,96.6725,VALID,102.242,VALID,18.9509,VALID,67,VALID,1.1598,
2009-02-09, 07:15:00,VALID,917.475,VALID,0,VALID,96.1587,VALID,109.221,VALID,19.0614,VALID,76,VALID,0.819247,
2009-02-09, 07:16:00,VALID,917.499,VALID,0,VALID,95.7569,VALID,115.622,VALID,19.1749,VALID,104,VALID,0.0490057,
2009-02-09, 07:17:00,VALID,917.523,VALID,0,VALID,95.3449,VALID,121.532,VALID,19.305,VALID,140,VALID,0.698828,
2009-02-09, 07:18:00,VALID,917.546,VALID,0,VALID,94.9952,VALID,125.879,VALID,19.425,VALID,150,VALID,1.21837,
2009-02-09, 07:19:00,VALID,917.562,VALID,0,VALID,94.5667,VALID,130.107,VALID,19.5416,VALID,145,VALID,0.67242,
2009-02-09, 07:20:00,VALID,917.569,VALID,0,VALID,94.1471,VALID,135.813,VALID,19.6579,VALID,142,VALID,1.24486,
2009-02-09, 07:21:00,VALID,917.574,VALID,0,VALID,93.6384,VALID,138.716,VALID,19.746,VALID,138,VALID,1.46641,
2009-02-09, 07:22:00,VALID,917.586,VALID,0,VALID,93.4324,VALID,143.148,VALID,19.8273,VALID,146,VALID,1.35508,
2009-02-09, 07:23:00,VALID,917.592,VALID,0,VALID,93.1171,VALID,149.109,VALID,19.907,VALID,139,VALID,1.33836,
2009-02-09, 07:24:00,VALID,917.581,VALID,0,VALID,92.9378,VALID,153.201,VALID,19.9684,VALID,135,VALID,1.1855,
2009-02-09, 07:25:00,VALID,917.586,VALID,0,VALID,92.5868,VALID,152.42,VALID,20.0562,VALID,132,VALID,1.39825,
2009-02-09, 07:26:00,VALID,917.599,VALID,0,VALID,92.3961,VALID,153.337,VALID,20.1406,VALID,141,VALID,1.13507,
2009-02-09, 07:27:00,VALID,917.615,VALID,0,VALID,92.185,VALID,155.443,VALID,20.2547,VALID,138,VALID,0.887962,
2009-02-09, 07:28:00,VALID,917.625,VALID,0,VALID,91.614,VALID,158.244,VALID,20.3453,VALID,138,VALID,1.03754,
2009-02-09, 07:29:00,VALID,917.619,VALID,0,VALID,91.1944,VALID,160.316,VALID,20.4229,VALID,145,VALID,1.04325,
2009-02-09, 07:30:00,VALID,917.636,VALID,0,VALID,90.6845,VALID,160.452,VALID,20.5273,VALID,134,VALID,0.899503,
2009-02-09, 07:31:00,VALID,917.648,VALID,0,VALID,90.2,VALID,155.476,VALID,20.6114,VALID,133,VALID,0.884811,
2009-02-09, 07:32:00,VALID,917.664,VALID,0,VALID,90.0487,VALID,148.497,VALID,20.6833,VALID,137,VALID,0.564258,
2009-02-09, 07:33:00,VALID,917.677,VALID,0,VALID,89.9266,VALID,146.29,VALID,20.7777,VALID,156,VALID,0.399962,
2009-02-09, 07:34:00,VALID,917.684,VALID,0,VALID,89.5108,VALID,145.169,VALID,20.9003,VALID,172,VALID,0.00887784,
2009-02-09, 07:35:00,VALID,917.708,VALID,0,VALID,88.8279,VALID,146.952,VALID,20.9879,VALID,149,VALID,0.456641,
2009-02-09, 07:36:00,VALID,917.721,VALID,0,VALID,88.4414,VALID,151.214,VALID,21.1153,VALID,148,VALID,0.747954,
2009-02-09, 07:37:00,VALID,917.742,VALID,0,VALID,87.8959,VALID,154.526,VALID,21.1472,VALID,145,VALID,0.709263,
2009-02-09, 07:38:00,VALID,917.762,VALID,0,VALID,87.9302,VALID,155.052,VALID,21.2463,VALID,147,VALID,0.295177,
2009-02-09, 07:39:00,VALID,917.777,VALID,0,VALID,87.5347,VALID,155.154,VALID,21.3631,VALID,138,VALID,0.605469,
2009-02-09, 07:40:00,VALID,917.776,VALID,0,VALID,86.9968,VALID,158.465,VALID,21.3961,VALID,154,VALID,0.789595,
2009-02-09, 07:41:00,VALID,917.781,VALID,0,VALID,86.8379,VALID,157.684,VALID,21.5233,VALID,160,VALID,0.582775,
2009-02-09, 07:42:00,VALID,917.787,VALID,0,VALID,85.8829,VALID,167.465,VALID,21.5717,VALID,147,VALID,1.14844,
2009-02-09, 07:43:00,VALID,917.793,VALID,0,VALID,86.0584,VALID,202.972,VALID,21.5509,VALID,153,VALID,1.07847,
2009-02-09, 07:44:00,VALID,917.805,VALID,0,VALID,86.4691,VALID,227.9,VALID,21.5993,VALID,158,VALID,0.699963,
2009-02-09, 07:45:00,VALID,917.821,VALID,0,VALID,85.9732,VALID,235.898,VALID,21.6872,VALID,184,VALID,0.975419,
2009-02-09, 07:46:00,VALID,917.83,VALID,0,VALID,85.8676,VALID,240.381,VALID,21.7979,VALID,175,VALID,0.835756,
2009-02-09, 07:47:00,VALID,917.836,VALID,0,VALID,85.3361,VALID,246.986,VALID,21.8363,VALID,167,VALID,1.10938,
2009-02-09, 07:48:00,VALID,917.857,VALID,0,VALID,85.4099,VALID,250.23,VALID,21.9145,VALID,188,VALID,0.821007,
2009-02-09, 07:49:00,VALID,917.858,VALID,0,VALID,85.1683,VALID,259.365,VALID,22.0051,VALID,150,VALID,0.629724,
2009-02-09, 07:50:00,VALID,917.868,VALID,0,VALID,85.1237,VALID,272.339,VALID,22.0441,VALID,157,VALID,0.328488,
2009-02-09, 07:51:00,VALID,917.867,VALID,0,VALID,84.6545,VALID,283.172,VALID,22.0996,VALID,166,VALID,1.13408,
2009-02-09, 07:52:00,VALID,917.867,VALID,0,VALID,84.6355,VALID,287.74,VALID,22.1028,VALID,157,VALID,0.925686,
2009-02-09, 07:53:00,VALID,917.867,VALID,0,VALID,84.8008,VALID,288.555,VALID,22.1667,VALID,147,VALID,0.70827,
2009-02-09, 07:54:00,VALID,917.865,VALID,0,VALID,84.5859,VALID,283.087,VALID,22.1551,VALID,136,VALID,0.967882,
2009-02-09, 07:55:00,VALID,917.87,VALID,0,VALID,84.9724,VALID,282.833,VALID,22.1908,VALID,155,VALID,0.886458,
2009-02-09, 07:56:00,VALID,917.869,VALID,0,VALID,84.4384,VALID,278.995,VALID,22.2362,VALID,137,VALID,1.1994,
2009-02-09, 07:57:00,VALID,917.871,VALID,0,VALID,84.5172,VALID,196.214,VALID,22.2235,VALID,145,VALID,1.04033,
2009-02-09, 07:58:00,VALID,917.888,VALID,0,VALID,84.2972,VALID,152.624,VALID,22.1846,VALID,153,VALID,1.22344,
2009-02-09, 07:59:00,VALID,917.888,VALID,0,VALID,84.7702,VALID,139.192,VALID,22.1494,VALID,149,VALID,1.07794,
2009-02-09, 08:00:00,VALID,917.919,VALID,0,VALID,85.1581,VALID,128.324,VALID,22.0641,VALID,140,VALID,1.14005,
2009-02-09, 08:01:00,VALID,917.936,VALID,0,VALID,85.9554,VALID,135.218,VALID,22.0201,VALID,130,VALID,0.308398,
2009-02-09, 08:02:00,VALID,917.939,VALID,0,VALID,86.3699,VALID,167.091,VALID,22.0493,VALID,142,VALID,0.708651,
2009-02-09, 08:03:00,VALID,917.954,VALID,0,VALID,86.8824,VALID,174.953,VALID,22.0912,VALID,132,VALID,0.0292468,
2009-02-09, 08:04:00,VALID,917.955,VALID,0,VALID,87.0655,VALID,177.042,VALID,22.2374,VALID,121,VALID,0,
2009-02-09, 08:05:00,VALID,917.963,VALID,0,VALID,86.7336,VALID,272.474,VALID,22.3962,VALID,121,VALID,0,
2009-02-09, 08:06:00,VALID,917.963,VALID,0,VALID,85.4175,VALID,270.199,VALID,22.5645,VALID,144,VALID,0.447852,
2009-02-09, 08:07:00,VALID,917.955,VALID,0,VALID,84.1052,VALID,316.251,VALID,22.6706,VALID,142,VALID,0.51944,
2009-02-09, 08:08:00,VALID,917.961,VALID,0,VALID,83.4554,VALID,326.728,VALID,22.6741,VALID,149,VALID,0.833705,
2009-02-09, 08:09:00,VALID,917.96,VALID,0,VALID,83.7428,VALID,326.711,VALID,22.6998,VALID,127,VALID,0.453125,
2009-02-09, 08:10:00,VALID,917.976,VALID,0,VALID,83.0727,VALID,327.9,VALID,22.7255,VALID,128,VALID,1.14768,
2009-02-09, 08:11:00,VALID,917.985,VALID,0,VALID,82.9417,VALID,334.675,VALID,22.6351,VALID,133,VALID,1.11384,
2009-02-09, 08:12:00,VALID,918.004,VALID,0,VALID,83.1146,VALID,328.087,VALID,22.4928,VALID,130,VALID,1.28038,
2009-02-09, 08:13:00,VALID,918.024,VALID,0,VALID,83.7224,VALID,331.16,VALID,22.3821,VALID,136,VALID,1.29506,
2009-02-09, 08:14:00,VALID,918.034,VALID,0,VALID,84.1383,VALID,331.975,VALID,22.3396,VALID,138,VALID,1.0334,
2009-02-09, 08:15:00,VALID,918.051,VALID,0,VALID,85.0386,VALID,324.453,VALID,22.4305,VALID,147,VALID,0.790737,
2009-02-09, 08:16:00,VALID,918.078,VALID,0,VALID,84.8427,VALID,264.884,VALID,22.5152,VALID,127,VALID,0.731971,
2009-02-09, 08:17:00,VALID,918.074,VALID,0,VALID,84.6558,VALID,250.841,VALID,22.5926,VALID,149,VALID,0.345424,
2009-02-09, 08:18:00,VALID,918.081,VALID,0,VALID,84.0874,VALID,261.522,VALID,22.7488,VALID,164,VALID,0.674293,
2009-02-09, 08:19:00,VALID,918.101,VALID,0,VALID,83.0981,VALID,278.486,VALID,22.8072,VALID,155,VALID,0.998757,
2009-02-09, 08:20:00,VALID,918.109,VALID,0,VALID,83.0663,VALID,300.764,VALID,22.6944,VALID,159,VALID,1.25436,
2009-02-09, 08:21:00,VALID,918.109,VALID,0,VALID,83.6207,VALID,289.217,VALID,22.6206,VALID,162,VALID,0.855097,
2009-02-09, 08:22:00,VALID,918.127,VALID,0,VALID,84.0314,VALID,258.992,VALID,22.6761,VALID,165,VALID,0.91441,
2009-02-09, 08:23:00,VALID,918.132,VALID,0,VALID,84.1166,VALID,254.254,VALID,22.6833,VALID,165,VALID,1.07831,
2009-02-09, 08:24:00,VALID,918.147,VALID,0,VALID,84.3036,VALID,258.465,VALID,22.6614,VALID,170,VALID,0.592507,
2009-02-09, 08:25:00,VALID,918.158,VALID,0,VALID,84.3862,VALID,254.678,VALID,22.7423,VALID,143,VALID,0.43936,
2009-02-09, 08:26:00,VALID,918.158,VALID,0,VALID,84.1179,VALID,248.582,VALID,22.8397,VALID,116,VALID,0.125381,
2009-02-09, 08:27:00,VALID,918.177,VALID,0,VALID,83.856,VALID,224.86,VALID,22.9596,VALID,124,VALID,0,
2009-02-09, 08:28:00,VALID,918.175,VALID,0,VALID,83.0053,VALID,213.5,VALID,23.1001,VALID,124,VALID,0.0256944,
2009-02-09, 08:29:00,VALID,918.188,VALID,0,VALID,81.7146,VALID,208.083,VALID,23.2106,VALID,185,VALID,0.329942,
2009-02-09, 08:30:00,VALID,918.19,VALID,0,VALID,81.3522,VALID,214.264,VALID,23.3281,VALID,189,VALID,0,
2009-02-09, 08:31:00,VALID,918.198,VALID,0,VALID,81.1233,VALID,235.881,VALID,23.4253,VALID,189,VALID,0,
2009-02-09, 08:32:00,VALID,918.207,VALID,0,VALID,81.0572,VALID,268.535,VALID,23.5357,VALID,189,VALID,0,
2009-02-09, 08:33:00,VALID,918.223,VALID,0,VALID,80.771,VALID,385.499,VALID,23.6586,VALID,189,VALID,0,
2009-02-09, 08:34:00,VALID,918.219,VALID,0,VALID,80.1213,VALID,238.326,VALID,23.834,VALID,189,VALID,0,
2009-02-09, 08:35:00,VALID,918.224,VALID,0,VALID,79.8835,VALID,309.085,VALID,23.9643,VALID,154,VALID,0.0387074,
2009-02-09, 08:36:00,VALID,918.234,VALID,0,VALID,79.6711,VALID,413.806,VALID,23.8417,VALID,61,VALID,0.421875,
2009-02-09, 08:37:00,VALID,918.251,VALID,0,VALID,79.2019,VALID,358.652,VALID,23.6462,VALID,77,VALID,0.105469,
2009-02-09, 08:38:00,VALID,918.272,VALID,0,VALID,79.2337,VALID,322.483,VALID,23.5097,VALID,74,VALID,0.193788,
2009-02-09, 08:39:00,VALID,918.284,VALID,0,VALID,80.4951,VALID,386.891,VALID,23.4781,VALID,31,VALID,1.44569,
2009-02-09, 08:40:00,VALID,918.303,VALID,0,VALID,81.3255,VALID,272.729,VALID,23.3925,VALID,37,VALID,1.52129,
2009-02-09, 08:41:00,VALID,918.327,VALID,0,VALID,81.4119,VALID,245.186,VALID,23.2794,VALID,54,VALID,0.957667,
2009-02-09, 08:42:00,VALID,918.356,VALID,0,VALID,82.1863,VALID,253.507,VALID,23.1111,VALID,28,VALID,0.396019,
2009-02-09, 08:43:00,VALID,918.369,VALID,0,VALID,83.1286,VALID,270.369,VALID,23.075,VALID,56,VALID,0.108073,
2009-02-09, 08:44:00,VALID,918.384,VALID,0,VALID,83.1184,VALID,295.619,VALID,23.0688,VALID,76,VALID,0.306323,
2009-02-09, 08:45:00,VALID,918.381,VALID,0,VALID,82.3364,VALID,349.941,VALID,22.9616,VALID,47,VALID,0.598958,
2009-02-09, 08:46:00,VALID,918.406,VALID,0,VALID,82.3758,VALID,364.595,VALID,22.8415,VALID,55,VALID,0.11859,
2009-02-09, 08:47:00,VALID,918.404,VALID,0,VALID,83.1591,VALID,492.104,VALID,22.8246,VALID,58,VALID,0.172057,
2009-02-09, 08:48:00,VALID,918.408,VALID,0,VALID,83.2787,VALID,434.03,VALID,22.9714,VALID,74,VALID,0.170272,
2009-02-09, 08:49:00,VALID,918.412,VALID,0,VALID,83.0053,VALID,308.202,VALID,23.0981,VALID,53,VALID,0,
2009-02-09, 08:50:00,VALID,918.421,VALID,0,VALID,82.5271,VALID,291.272,VALID,23.2342,VALID,104,VALID,0,
2009-02-09, 08:51:00,VALID,918.409,VALID,0,VALID,81.3725,VALID,280.625,VALID,23.3701,VALID,173,VALID,0.217634,
2009-02-09, 08:52:00,VALID,918.407,VALID,0,VALID,80.7583,VALID,282.374,VALID,23.562,VALID,204,VALID,0,
2009-02-09, 08:53:00,VALID,918.403,VALID,0,VALID,80.0564,VALID,302.768,VALID,23.7313,VALID,204,VALID,0,
2009-02-09, 08:54:00,VALID,918.39,VALID,0,VALID,79.1091,VALID,315.589,VALID,23.9197,VALID,204,VALID,0,
2009-02-09, 08:55:00,VALID,918.376,VALID,0,VALID,78.3626,VALID,308.508,VALID,24.1829,VALID,204,VALID,0,
2009-02-09, 08:56:00,VALID,918.369,VALID,0,VALID,77.6111,VALID,332.145,VALID,24.4464,VALID,202,VALID,0,
2009-02-09, 08:57:00,VALID,918.352,VALID,0,VALID,76.6587,VALID,375.531,VALID,24.7164,VALID,165,VALID,0,
2009-02-09, 08:58:00,VALID,918.352,VALID,0,VALID,75.7533,VALID,390.848,VALID,24.9179,VALID,147,VALID,0,
2009-02-09, 08:59:00,VALID,918.339,VALID,0,VALID,75.0832,VALID,409.561,VALID,25.1419,VALID,147,VALID,0,
2009-02-09, 09:00:00,VALID,918.332,VALID,0,VALID,74.6686,VALID,387.604,VALID,25.3659,VALID,192,VALID,0,
2009-02-09, 09:01:00,VALID,918.341,VALID,0,VALID,73.6984,VALID,373.137,VALID,25.4569,VALID,222,VALID,0.277699,
2009-02-09, 09:02:00,VALID,918.354,VALID,0,VALID,74.193,VALID,366.871,VALID,25.3694,VALID,289,VALID,0.253906,
2009-02-09, 09:03:00,VALID,918.374,VALID,0,VALID,74.0455,VALID,319.341,VALID,25.2752,VALID,306,VALID,0.043064,
2009-02-09, 09:04:00,VALID,918.391,VALID,0,VALID,74.792,VALID,235.847,VALID,25.2072,VALID,342,VALID,0.227108,
2009-02-09, 09:05:00,VALID,918.41,VALID,0,VALID,74.2236,VALID,204.857,VALID,25.0935,VALID,312,VALID,0,
2009-02-09, 09:06:00,VALID,918.416,VALID,0,VALID,75.4227,VALID,190.559,VALID,24.8887,VALID,290,VALID,0,
2009-02-09, 09:07:00,VALID,918.415,VALID,0,VALID,75.9046,VALID,190.542,VALID,24.7135,VALID,278,VALID,0,
2009-02-09, 09:08:00,VALID,918.407,VALID,0,VALID,76.66,VALID,197.487,VALID,24.5478,VALID,272,VALID,0,
2009-02-09, 09:09:00,VALID,918.39,VALID,0,VALID,77.4433,VALID,237.188,VALID,24.3947,VALID,291,VALID,0,
2009-02-09, 09:10:00,VALID,918.388,VALID,0,VALID,78.0791,VALID,541.502,VALID,24.3043,VALID,298,VALID,0,
2009-02-09, 09:11:00,VALID,918.386,VALID,0,VALID,78.4707,VALID,600.952,VALID,24.4207,VALID,298,VALID,0,
2009-02-09, 09:12:00,VALID,918.385,VALID,0,VALID,78.0142,VALID,616.676,VALID,24.7164,VALID,298,VALID,0,
2009-02-09, 09:13:00,VALID,918.394,VALID,0,VALID,76.8787,VALID,557.803,VALID,25.045,VALID,298,VALID,0,
2009-02-09, 09:14:00,VALID,918.401,VALID,0,VALID,75.5765,VALID,596.027,VALID,25.256,VALID,273,VALID,0,
2009-02-09, 09:15:00,VALID,918.404,VALID,0,VALID,75.0285,VALID,672.611,VALID,25.3567,VALID,260,VALID,0,
2009-02-09, 09:16:00,VALID,918.431,VALID,0,VALID,75.7419,VALID,629.462,VALID,25.517,VALID,316,VALID,0.183222,
2009-02-09, 09:17:00,VALID,918.435,VALID,0,VALID,73.6577,VALID,569.945,VALID,25.6044,VALID,273,VALID,0.138207,
2009-02-09, 09:18:00,VALID,918.454,VALID,0,VALID,74.4779,VALID,497.436,VALID,25.6987,VALID,313,VALID,0.102734,
2009-02-09, 09:19:00,VALID,918.464,VALID,0,VALID,73.6005,VALID,511.174,VALID,25.832,VALID,290,VALID,0.142578,
2009-02-09, 09:20:00,VALID,918.483,VALID,0,VALID,72.4815,VALID,477.535,VALID,25.9653,VALID,320,VALID,0,
2009-02-09, 09:21:00,VALID,918.482,VALID,0,VALID,72.5145,VALID,471.677,VALID,26.134,VALID,273,VALID,0,
2009-02-09, 09:22:00,VALID,918.497,VALID,0,VALID,72.0898,VALID,493.055,VALID,26.203,VALID,257,VALID,0.243862,
2009-02-09, 09:23:00,VALID,918.505,VALID,0,VALID,71.5011,VALID,505.655,VALID,26.1867,VALID,255,VALID,0.0935595,
2009-02-09, 09:24:00,VALID,918.509,VALID,0,VALID,71.4095,VALID,540.907,VALID,26.2066,VALID,247,VALID,0.46875,
2009-02-09, 09:25:00,VALID,918.512,VALID,0,VALID,71.7554,VALID,558.347,VALID,26.1611,VALID,224,VALID,0.0787109,
2009-02-09, 09:26:00,VALID,918.508,VALID,0,VALID,72.896,VALID,552.556,VALID,26.1835,VALID,282,VALID,0.150923,
2009-02-09, 09:27:00,VALID,918.513,VALID,0,VALID,72.3263,VALID,647.394,VALID,26.2953,VALID,299,VALID,0.244048,
2009-02-09, 09:28:00,VALID,918.505,VALID,0,VALID,71.2607,VALID,558.007,VALID,26.3213,VALID,287,VALID,0.407552,
2009-02-09, 09:29:00,VALID,918.505,VALID,0,VALID,72.5005,VALID,684.463,VALID,26.1815,VALID,319,VALID,0.783296,
2009-02-09, 09:30:00,VALID,918.497,VALID,0,VALID,72.5997,VALID,540.007,VALID,26.0973,VALID,307,VALID,0.205729,
2009-02-09, 09:31:00,VALID,918.48,VALID,0,VALID,72.2259,VALID,512.787,VALID,26.0619,VALID,290,VALID,0,
2009-02-09, 09:32:00,VALID,918.47,VALID,0,VALID,72.5883,VALID,658.568,VALID,26.0163,VALID,195,VALID,0,
2009-02-09, 09:33:00,VALID,918.47,VALID,0,VALID,72.2195,VALID,665.003,VALID,26.1015,VALID,232,VALID,0.54524,
2009-02-09, 09:34:00,VALID,918.475,VALID,0,VALID,72.9558,VALID,439.939,VALID,26.0199,VALID,253,VALID,0.84375,
2009-02-09, 09:35:00,VALID,918.487,VALID,0,VALID,73.4314,VALID,405.876,VALID,25.7927,VALID,230,VALID,0,
2009-02-09, 09:36:00,VALID,918.48,VALID,0,VALID,74.2884,VALID,392.087,VALID,25.7111,VALID,204,VALID,0,
2009-02-09, 09:37:00,VALID,918.481,VALID,0,VALID,74.4728,VALID,418.187,VALID,25.7407,VALID,300,VALID,0.00114329,
2009-02-09, 09:38:00,VALID,918.472,VALID,0,VALID,73.8217,VALID,374.665,VALID,25.687,VALID,295,VALID,0,
2009-02-09, 09:39:00,VALID,918.474,VALID,0,VALID,74.4715,VALID,372.356,VALID,25.5797,VALID,210,VALID,0,
2009-02-09, 09:40:00,VALID,918.485,VALID,0,VALID,74.5732,VALID,350.841,VALID,25.6353,VALID,181,VALID,0,
2009-02-09, 09:41:00,VALID,918.491,VALID,0,VALID,74.7691,VALID,348.803,VALID,25.7722,VALID,264,VALID,0.256811,
2009-02-09, 09:42:00,VALID,918.5,VALID,0,VALID,73.9057,VALID,343.098,VALID,25.7173,VALID,268,VALID,0.345982,
2009-02-09, 09:43:00,VALID,918.506,VALID,0,VALID,74.2859,VALID,337.222,VALID,25.5154,VALID,278,VALID,0.0636433,
2009-02-09, 09:44:00,VALID,918.51,VALID,0,VALID,75.485,VALID,343.709,VALID,25.3141,VALID,276,VALID,0.163872,
2009-02-09, 09:45:00,VALID,918.525,VALID,0,VALID,77.0363,VALID,368.62,VALID,25.1714,VALID,253,VALID,0.0470486,
2009-02-09, 09:46:00,VALID,918.517,VALID,0,VALID,75.7241,VALID,464.884,VALID,25.0765,VALID,258,VALID,0.163021,
2009-02-09, 09:47:00,VALID,918.486,VALID,0,VALID,75.9568,VALID,566.379,VALID,24.9397,VALID,254,VALID,0,
2009-02-09, 09:48:00,VALID,918.467,VALID,0,VALID,77.0007,VALID,659.128,VALID,24.9042,VALID,271,VALID,0,
2009-02-09, 09:49:00,VALID,918.449,VALID,0,VALID,76.8164,VALID,701.614,VALID,25.0375,VALID,261,VALID,0.0318216,
2009-02-09, 09:50:00,VALID,918.433,VALID,0,VALID,75.7431,VALID,666.107,VALID,25.057,VALID,266,VALID,0.454723,
2009-02-09, 09:51:00,VALID,918.436,VALID,0,VALID,76.398,VALID,746.375,VALID,24.9312,VALID,261,VALID,0.0428735,
2009-02-09, 09:52:00,VALID,918.424,VALID,0,VALID,77.5564,VALID,592.801,VALID,24.9731,VALID,244,VALID,0.00093006,
2009-02-09, 09:53:00,VALID,918.42,VALID,0,VALID,76.4845,VALID,563.39,VALID,25.1435,VALID,239,VALID,0.0667614,
2009-02-09, 09:54:00,VALID,918.429,VALID,0,VALID,75.4278,VALID,698.574,VALID,25.3541,VALID,243,VALID,0,
2009-02-09, 09:55:00,VALID,918.435,VALID,0,VALID,74.5364,VALID,763.492,VALID,25.6148,VALID,254,VALID,0.0078125,
2009-02-09, 09:56:00,VALID,918.427,VALID,0,VALID,73.4301,VALID,577.909,VALID,25.8756,VALID,254,VALID,0,
2009-02-09, 09:57:00,VALID,918.424,VALID,0,VALID,74.3787,VALID,609.034,VALID,26.0859,VALID,273,VALID,0,
2009-02-09, 09:58:00,VALID,918.431,VALID,0,VALID,73.4708,VALID,666.362,VALID,26.1542,VALID,296,VALID,0.0451766,
2009-02-09, 09:59:00,VALID,918.434,VALID,0,VALID,72.7854,VALID,624.504,VALID,26.1159,VALID,305,VALID,0.0161701,
2009-02-09, 10:00:00,VALID,918.429,VALID,0,VALID,70.0145,VALID,554.034,VALID,25.9764,VALID,267,VALID,0.171535,
2009-02-09, 10:01:00,VALID,918.432,VALID,0,VALID,70.8869,VALID,761.37,VALID,25.8294,VALID,239,VALID,0.223189,
2009-02-09, 10:02:00,VALID,918.419,VALID,0,VALID,71.7783,VALID,566.735,VALID,25.885,VALID,262,VALID,0.898438,
2009-02-09, 10:03:00,VALID,918.421,VALID,0,VALID,70.8856,VALID,549.635,VALID,25.9214,VALID,310,VALID,0.554688,
2009-02-09, 10:04:00,VALID,918.433,VALID,0,VALID,70.3744,VALID,640.704,VALID,25.9956,VALID,288,VALID,0.69931,
2009-02-09, 10:05:00,VALID,918.432,VALID,0,VALID,68.8879,VALID,559.433,VALID,26.1097,VALID,301,VALID,0.503997,
2009-02-09, 10:06:00,VALID,918.428,VALID,0,VALID,69.3622,VALID,584.48,VALID,26.2557,VALID,300,VALID,0.328125,
2009-02-09, 10:07:00,VALID,918.43,VALID,0,VALID,69.9065,VALID,522.942,VALID,26.523,VALID,228,VALID,0.327083,
2009-02-09, 10:08:00,VALID,918.433,VALID,0,VALID,68.5446,VALID,548.056,VALID,26.7933,VALID,291,VALID,0.438772,
2009-02-09, 10:09:00,VALID,918.427,VALID,0,VALID,67.7765,VALID,516.064,VALID,26.9555,VALID,293,VALID,0.717882,
2009-02-09, 10:10:00,VALID,918.415,VALID,0,VALID,67.7231,VALID,535.796,VALID,27.0137,VALID,229,VALID,0.383168,
2009-02-09, 10:11:00,VALID,918.416,VALID,0,VALID,67.3887,VALID,519.002,VALID,27.0333,VALID,241,VALID,0.737723,
2009-02-09, 10:12:00,VALID,918.418,VALID,0,VALID,67.0721,VALID,535.711,VALID,26.9877,VALID,336,VALID,0.861914,
2009-02-09, 10:13:00,VALID,918.416,VALID,0,VALID,66.4579,VALID,530.634,VALID,26.82,VALID,285,VALID,0.622656,
2009-02-09, 10:14:00,VALID,918.416,VALID,0,VALID,66.4719,VALID,498.269,VALID,26.7347,VALID,279,VALID,1.125,
2009-02-09, 10:15:00,VALID,918.407,VALID,0,VALID,66.8228,VALID,492.495,VALID,26.6476,VALID,258,VALID,1.40123,
2009-02-09, 10:16:00,VALID,918.393,VALID,0,VALID,66.0573,VALID,456.784,VALID,26.3441,VALID,261,VALID,1.86919,
2009-02-09, 10:17:00,VALID,918.395,VALID,0,VALID,67.5438,VALID,423.604,VALID,26.0161,VALID,263,VALID,1.73783,
2009-02-09, 10:18:00,VALID,918.364,VALID,0,VALID,69.0201,VALID,416.489,VALID,25.7924,VALID,266,VALID,1.4401,
2009-02-09, 10:19:00,VALID,918.345,VALID,0,VALID,70.4227,VALID,388.199,VALID,25.6496,VALID,253,VALID,1.61119,
2009-02-09, 10:20:00,VALID,918.334,VALID,0,VALID,68.8192,VALID,360.163,VALID,25.5157,VALID,263,VALID,2.03367,
2009-02-09, 10:21:00,VALID,918.337,VALID,0,VALID,68.3551,VALID,315.402,VALID,25.5056,VALID,246,VALID,1.44265,
2009-02-09, 10:22:00,VALID,918.316,VALID,0,VALID,67.8325,VALID,286.144,VALID,25.7042,VALID,250,VALID,1.74375,
2009-02-09, 10:23:00,VALID,918.298,VALID,0,VALID,67.615,VALID,277.059,VALID,25.9198,VALID,241,VALID,1.02242,
2009-02-09, 10:24:00,VALID,918.28,VALID,0,VALID,66.8864,VALID,284.684,VALID,26.0492,VALID,262,VALID,1.7959,
2009-02-09, 10:25:00,VALID,918.263,VALID,0,VALID,65.5004,VALID,289.472,VALID,26.0424,VALID,248,VALID,2.04067,
2009-02-09, 10:26:00,VALID,918.245,VALID,0,VALID,66.2926,VALID,289.574,VALID,26.0655,VALID,239,VALID,1.86684,
2009-02-09, 10:27:00,VALID,918.226,VALID,0,VALID,65.8233,VALID,289.116,VALID,26.1533,VALID,243,VALID,1.72372,
2009-02-09, 10:28:00,VALID,918.221,VALID,0,VALID,64.5454,VALID,266.718,VALID,26.2837,VALID,250,VALID,1.18235,
2009-02-09, 10:29:00,VALID,918.199,VALID,0,VALID,65.6657,VALID,260.554,VALID,26.3516,VALID,246,VALID,1.48028,
2009-02-09, 10:30:00,VALID,918.183,VALID,0,VALID,63.874,VALID,250.484,VALID,26.2703,VALID,260,VALID,2.02699,
2009-02-09, 10:31:00,VALID,918.176,VALID,0,VALID,65.3567,VALID,274.631,VALID,26.0681,VALID,262,VALID,1.47257,
2009-02-09, 10:32:00,VALID,918.154,VALID,0,VALID,64.2186,VALID,318.781,VALID,26.0817,VALID,269,VALID,0.589286,
2009-02-09, 10:33:00,VALID,918.141,VALID,0,VALID,65.0019,VALID,337.103,VALID,26.3325,VALID,240,VALID,0.892624,
2009-02-09, 10:34:00,VALID,918.145,VALID,0,VALID,65.3999,VALID,353.931,VALID,26.5406,VALID,253,VALID,2.09444,
2009-02-09, 10:35:00,VALID,918.155,VALID,0,VALID,66.566,VALID,398.234,VALID,26.4004,VALID,270,VALID,1.40898,
2009-02-09, 10:36:00,VALID,918.151,VALID,0,VALID,67.6697,VALID,546.902,VALID,26.2964,VALID,261,VALID,1.5181,